EWG01A LZIB-LZKZ

Flight info

Callsign EWG01A
Flight time 0h 35m
Altitude 21000
Route NIT N190 TAKOS
Aircraft A320/M-SDE3FGHIRWY/LB1

Departure

Time 2026-04-26 18:58
Airport M. R. Štefánik Airport (LZIB)

Arrival

Time 2026-04-26 19:33
Airport Košice International Airport (LZKZ)
Time Latitude Longitude Altitude Speed Heading
2026-04-26 18:25 48.17046 17.20273 443 ft 0 kts 320°
2026-04-26 18:28 48.17046 17.20274 443 ft 0 kts 320°
2026-04-26 18:36 48.17045 17.20274 443 ft 0 kts 320°
2026-04-26 18:44 48.17038 17.20284 439 ft 0 kts 320°
2026-04-26 18:44 48.17033 17.20290 441 ft 2 kts 320°
2026-04-26 18:44 48.17018 17.20304 430 ft 3 kts 351°
2026-04-26 18:45 48.17001 17.20303 428 ft 3 kts 27°
2026-04-26 18:46 48.17000 17.20303 428 ft 0 kts 28°
2026-04-26 18:47 48.17001 17.20303 428 ft 1 kts 28°
2026-04-26 18:48 48.17009 17.20321 434 ft 6 kts 53°
2026-04-26 18:48 48.17049 17.20394 434 ft 9 kts 47°
2026-04-26 18:48 48.17113 17.20492 434 ft 17 kts 43°
2026-04-26 18:48 48.17176 17.20595 431 ft 13 kts 70°
2026-04-26 18:49 48.17122 17.20732 436 ft 20 kts 134°
2026-04-26 18:49 48.17009 17.20902 434 ft 16 kts 134°
2026-04-26 18:49 48.16965 17.20971 439 ft 0 kts 133°
2026-04-26 18:52 48.16948 17.20998 429 ft 8 kts 133°
2026-04-26 18:53 48.16884 17.21096 434 ft 18 kts 135°
2026-04-26 18:53 48.16782 17.21254 434 ft 25 kts 133°
2026-04-26 18:53 48.16646 17.21473 438 ft 32 kts 134°
2026-04-26 18:53 48.16472 17.21737 438 ft 39 kts 134°
2026-04-26 18:54 48.16275 17.22050 431 ft 44 kts 133°
2026-04-26 18:54 48.16081 17.22349 434 ft 25 kts 138°
2026-04-26 18:54 48.15988 17.22491 435 ft 16 kts 133°
2026-04-26 18:54 48.15890 17.22638 436 ft 24 kts 135°
2026-04-26 18:55 48.15803 17.22778 434 ft 11 kts 132°
2026-04-26 18:55 48.15770 17.22833 439 ft 0 kts 132°
2026-04-26 18:55 48.15761 17.22847 435 ft 6 kts 132°
2026-04-26 18:55 48.15717 17.22929 435 ft 14 kts 122°
2026-04-26 18:56 48.15690 17.23028 428 ft 0 kts 102°
2026-04-26 18:56 48.15689 17.23029 427 ft 1 kts 103°
2026-04-26 18:56 48.15683 17.23085 437 ft 10 kts 100°
2026-04-26 18:57 48.15725 17.23191 434 ft 16 kts 16°
2026-04-26 18:57 48.15798 17.23152 435 ft 19 kts 323°
2026-04-26 18:57 48.15822 17.23117 435 ft 0 kts 313°
2026-04-26 18:57 48.15845 17.23081 437 ft 29 kts 314°
2026-04-26 18:58 48.16163 17.22584 440 ft 98 kts 314°
2026-04-26 18:58 48.16774 17.21651 448 ft 150 kts 315°
2026-04-26 18:58 48.17568 17.20509 863 ft 167 kts 321°
2026-04-26 18:58 48.18708 17.20071 1356 ft 181 kts 18°
2026-04-26 18:59 48.19829 17.20907 1981 ft 191 kts 26°
2026-04-26 18:59 48.21170 17.21544 2286 ft 216 kts
2026-04-26 18:59 48.22672 17.22233 2755 ft 238 kts 33°
2026-04-26 18:59 48.23844 17.23992 3565 ft 248 kts 54°
2026-04-26 19:00 48.24675 17.26295 4471 ft 254 kts 62°
2026-04-26 19:00 48.25410 17.28738 5357 ft 260 kts 62°
2026-04-26 19:00 48.26119 17.31285 6115 ft 273 kts 72°
2026-04-26 19:00 48.26247 17.34204 6825 ft 288 kts 89°
2026-04-26 19:01 48.26349 17.37220 7601 ft 291 kts 78°
2026-04-26 19:01 48.26713 17.40213 8451 ft 293 kts 73°
2026-04-26 19:01 48.27171 17.43203 9309 ft 296 kts 72°
2026-04-26 19:01 48.27646 17.46231 10152 ft 300 kts 72°
2026-04-26 19:02 48.28102 17.49315 10912 ft 304 kts 73°
2026-04-26 19:02 48.28531 17.52445 11677 ft 308 kts 75°
2026-04-26 19:02 48.28937 17.55619 12430 ft 312 kts 75°
2026-04-26 19:02 48.29201 17.57745 12936 ft 314 kts 75°
2026-04-26 19:03 48.29729 17.62094 13948 ft 319 kts 76°
2026-04-26 19:03 48.30123 17.65396 14618 ft 323 kts 76°
2026-04-26 19:03 48.30517 17.68733 15280 ft 326 kts 76°
2026-04-26 19:03 48.30916 17.72105 15940 ft 330 kts 76°
2026-04-26 19:04 48.31318 17.75514 16597 ft 333 kts 76°
2026-04-26 19:04 48.31714 17.78957 17239 ft 337 kts 77°
2026-04-26 19:04 48.32024 17.82484 17880 ft 342 kts 79°
2026-04-26 19:04 48.32258 17.86059 18516 ft 346 kts 81°
2026-04-26 19:05 48.32649 17.93307 19600 ft 354 kts 81°
2026-04-26 19:05 48.32848 17.97008 20120 ft 359 kts 81°
2026-04-26 19:05 48.33068 18.00836 20250 ft 376 kts 81°
2026-04-26 19:06 48.33307 18.04797 20599 ft 385 kts 81°
2026-04-26 19:06 48.33554 18.08827 21085 ft 389 kts 81°
2026-04-26 19:06 48.33804 18.12895 21593 ft 393 kts 81°
2026-04-26 19:06 48.34054 18.17008 22092 ft 397 kts 81°
2026-04-26 19:07 48.34305 18.21162 22589 ft 401 kts 81°
2026-04-26 19:07 48.34557 18.25347 23071 ft 405 kts 81°
2026-04-26 19:07 48.34809 18.29578 23235 ft 409 kts 81°
2026-04-26 19:07 48.35064 18.33901 23255 ft 418 kts 82°
2026-04-26 19:08 48.35317 18.38264 23252 ft 420 kts 82°
2026-04-26 19:08 48.35565 18.42637 23256 ft 420 kts 82°
2026-04-26 19:08 48.35813 18.47020 23259 ft 421 kts 82°
2026-04-26 19:08 48.36060 18.51404 23261 ft 421 kts 82°
2026-04-26 19:09 48.36307 18.55790 23256 ft 421 kts 82°
2026-04-26 19:09 48.36553 18.60178 23250 ft 421 kts 82°
2026-04-26 19:09 48.36799 18.64570 23249 ft 421 kts 81°
2026-04-26 19:09 48.37041 18.68902 23262 ft 421 kts 81°
2026-04-26 19:10 48.37288 18.73344 23254 ft 421 kts 81°
2026-04-26 19:10 48.37528 18.77677 23260 ft 421 kts 81°
2026-04-26 19:10 48.37769 18.82073 23262 ft 422 kts 81°
2026-04-26 19:10 48.38006 18.86466 23261 ft 421 kts 82°
2026-04-26 19:11 48.38239 18.90862 23255 ft 421 kts 81°
2026-04-26 19:11 48.38473 18.95256 23255 ft 422 kts 81°
2026-04-26 19:11 48.38704 18.99647 23254 ft 422 kts 81°
2026-04-26 19:11 48.38935 19.04052 23256 ft 422 kts 81°
2026-04-26 19:12 48.39167 19.08451 23248 ft 422 kts 81°
2026-04-26 19:12 48.39399 19.12843 23248 ft 422 kts 81°
2026-04-26 19:12 48.39630 19.17245 23246 ft 422 kts 81°
2026-04-26 19:12 48.39854 19.21652 23247 ft 422 kts 82°
2026-04-26 19:13 48.40074 19.26061 23245 ft 422 kts 81°
2026-04-26 19:13 48.40292 19.30459 23237 ft 422 kts 81°
2026-04-26 19:13 48.40510 19.34859 23176 ft 421 kts 81°
2026-04-26 19:13 48.40718 19.39185 22939 ft 404 kts 81°
2026-04-26 19:14 48.40911 19.43306 22514 ft 388 kts 81°
2026-04-26 19:14 48.41101 19.47320 21889 ft 380 kts 81°
2026-04-26 19:14 48.41288 19.51209 21240 ft 374 kts 81°
2026-04-26 19:14 48.41415 19.53836 20798 ft 371 kts 80°
2026-04-26 19:15 48.41660 19.58920 19934 ft 365 kts 80°
2026-04-26 19:15 48.41842 19.62701 19311 ft 360 kts 80°
2026-04-26 19:15 48.42020 19.66445 18684 ft 357 kts 80°
2026-04-26 19:15 48.42194 19.70156 17982 ft 354 kts 80°
2026-04-26 19:16 48.42366 19.73831 17266 ft 351 kts 80°
2026-04-26 19:16 48.42536 19.77481 16571 ft 348 kts 80°
2026-04-26 19:16 48.42703 19.81100 15891 ft 346 kts 80°
2026-04-26 19:16 48.42869 19.84705 15220 ft 344 kts 81°
2026-04-26 19:17 48.43032 19.88285 14583 ft 342 kts 81°
2026-04-26 19:17 48.43189 19.91840 13918 ft 339 kts 81°
2026-04-26 19:17 48.43346 19.95370 13200 ft 337 kts 81°
2026-04-26 19:17 48.43498 19.98855 12745 ft 327 kts 81°
2026-04-26 19:18 48.43638 20.02174 12295 ft 318 kts 81°
2026-04-26 19:18 48.43781 20.05507 11712 ft 314 kts 82°
2026-04-26 19:18 48.43920 20.08735 11080 ft 312 kts 82°
2026-04-26 19:18 48.44062 20.11992 10477 ft 310 kts 82°
2026-04-26 19:19 48.44201 20.15178 10272 ft 303 kts 82°
2026-04-26 19:19 48.44338 20.18336 10229 ft 302 kts 82°
2026-04-26 19:19 48.44474 20.21503 10236 ft 303 kts 82°
2026-04-26 19:19 48.44607 20.24670 10229 ft 303 kts 82°
2026-04-26 19:20 48.44740 20.27838 10083 ft 304 kts 82°
2026-04-26 19:20 48.44827 20.29933 10003 ft 302 kts 82°
2026-04-26 19:20 48.44998 20.34141 10023 ft 301 kts 82°
2026-04-26 19:20 48.45127 20.37291 10018 ft 301 kts 82°
2026-04-26 19:21 48.45257 20.40428 9735 ft 299 kts 82°
2026-04-26 19:21 48.45388 20.43589 9097 ft 305 kts 83°
2026-04-26 19:21 48.45515 20.46760 8481 ft 300 kts 84°
2026-04-26 19:21 48.45637 20.49888 7774 ft 298 kts 85°
2026-04-26 19:22 48.45754 20.52989 7075 ft 296 kts 85°
2026-04-26 19:22 48.45871 20.56068 6367 ft 293 kts 86°
2026-04-26 19:22 48.45984 20.59059 6058 ft 278 kts 85°
2026-04-26 19:22 48.46093 20.61899 5989 ft 274 kts 85°
2026-04-26 19:23 48.46207 20.64776 5988 ft 275 kts 85°
2026-04-26 19:23 48.46320 20.67654 5993 ft 275 kts 85°
2026-04-26 19:23 48.46429 20.70533 5990 ft 275 kts 85°
2026-04-26 19:23 48.46539 20.73409 5885 ft 273 kts 84°
2026-04-26 19:24 48.46653 20.76260 5465 ft 271 kts 84°
2026-04-26 19:24 48.46755 20.79021 5214 ft 254 kts 84°
2026-04-26 19:24 48.46952 20.84397 3624 ft 261 kts 83°
2026-04-26 19:25 48.47054 20.87143 2863 ft 262 kts 82°
2026-04-26 19:25 48.47087 20.88063 2704 ft 258 kts 82°
2026-04-26 19:25 48.47228 20.92246 2486 ft 222 kts 82°
2026-04-26 19:25 48.47308 20.94547 2491 ft 219 kts 82°
2026-04-26 19:26 48.47390 20.96837 2500 ft 217 kts 82°
2026-04-26 19:26 48.47471 20.99099 2503 ft 215 kts 82°
2026-04-26 19:26 48.47546 21.01287 2498 ft 206 kts 81°
2026-04-26 19:26 48.47620 21.03415 2495 ft 202 kts 81°
2026-04-26 19:27 48.47692 21.05518 2505 ft 200 kts 81°
2026-04-26 19:27 48.47764 21.07599 2519 ft 197 kts 81°
2026-04-26 19:27 48.47835 21.09646 2514 ft 195 kts 81°
2026-04-26 19:27 48.47904 21.11682 2503 ft 193 kts 81°
2026-04-26 19:28 48.47973 21.13691 2498 ft 191 kts 80°
2026-04-26 19:28 48.48128 21.15653 2497 ft 185 kts 66°
2026-04-26 19:28 48.48753 21.17268 2502 ft 174 kts 42°
2026-04-26 19:28 48.49661 21.18242 2497 ft 154 kts 21°
2026-04-26 19:29 48.50640 21.18653 2493 ft 140 kts 12°
2026-04-26 19:29 48.51573 21.18978 2500 ft 136 kts 12°
2026-04-26 19:29 48.52484 21.19297 2519 ft 134 kts 12°
2026-04-26 19:29 48.53388 21.19613 2532 ft 132 kts 12°
2026-04-26 19:30 48.54260 21.19917 2510 ft 125 kts 12°
2026-04-26 19:30 48.55103 21.20210 2511 ft 124 kts 12°
2026-04-26 19:30 48.55939 21.20501 2494 ft 123 kts 12°
2026-04-26 19:30 48.56491 21.20693 2442 ft 123 kts 12°
2026-04-26 19:31 48.57611 21.21083 2270 ft 123 kts 12°
2026-04-26 19:31 48.58432 21.21369 2117 ft 120 kts 12°
2026-04-26 19:31 48.59246 21.21653 1959 ft 120 kts 12°
2026-04-26 19:31 48.60049 21.21932 1794 ft 120 kts 12°
2026-04-26 19:32 48.60876 21.22216 1582 ft 124 kts 12°
2026-04-26 19:32 48.61726 21.22518 1426 ft 127 kts 13°
2026-04-26 19:32 48.62591 21.22827 1255 ft 129 kts 13°
2026-04-26 19:32 48.63470 21.23128 1058 ft 129 kts 13°
2026-04-26 19:33 48.64352 21.23429 899 ft 130 kts 13°
2026-04-26 19:33 48.65231 21.23739 753 ft 126 kts 14°
2026-04-26 19:33 48.65935 21.23989 751 ft 79 kts 13°
2026-04-26 19:33 48.66281 21.24107 753 ft 22 kts 12°
2026-04-26 19:34 48.66432 21.24156 754 ft 22 kts 12°
2026-04-26 19:34 48.66588 21.24208 756 ft 23 kts 19°
2026-04-26 19:34 48.66741 21.24263 758 ft 24 kts
2026-04-26 19:34 48.66911 21.24334 760 ft 26 kts
2026-04-26 19:35 48.66998 21.24361 760 ft 12 kts 15°
2026-04-26 19:35 48.67095 21.24396 760 ft 17 kts 10°
2026-04-26 19:35 48.67202 21.24415 758 ft 17 kts 340°
2026-04-26 19:35 48.67248 21.24289 758 ft 14 kts 287°
2026-04-26 19:36 48.67275 21.24122 760 ft 19 kts 282°
2026-04-26 19:36 48.67280 21.24088 759 ft 5 kts 282°
2026-04-26 19:36 48.67308 21.23930 756 ft 12 kts 307°
2026-04-26 19:36 48.67335 21.23857 758 ft 0 kts 243°
2026-04-26 19:37 48.67334 21.23856 757 ft 0 kts 243°